Nantucket, MA

6:43 AM EDT on April 24, 2017 (GMT -0400)
Nantucket Memorial

Weather History for KACK - June, 2013

Change the Weather History Date:

Sunday, June 9, 2013

  Actual Average Record
Temperature  
Mean Temperature 62 °F -  
Max Temperature 72 °F 66 °F 84 °F (1959)
Min Temperature 53 °F 53 °F 41 °F (1975)
Degree Days  
Heating Degree Days 3    
Growing Degree Days 12 (Base 50)    
Moisture  
Dew Point 57 °F    
Average Humidity 87    
Maximum Humidity 100    
Minimum Humidity 59    
Precipitation  
Precipitation 0.00 in - - ()
Sea Level Pressure  
Sea Level Pressure 30.09 in    
Wind  
Wind Speed 7 mph (WSW)    
Max Wind Speed 14 mph    
Max Gust Speed -    
Visibility 5 miles    
Events Fog    
Averages and records for this station are not official NWS values.
T = Trace of Precipitation, MM = Missing Value Source: NWS Daily Summary

Daily Weather History Graph

Daily Weather History Graph

Search for Another Location

Airport or City:

Trip Planner

Search our weather history database for the weather conditions in past years. The results will help you decide how hot, cold, wet, or windy it might be!

Date:

Astronomy

Jun. 09, 2013 Rise Set
Actual Time 5:07 AM EDT 8:12 PM EDT
Civil Twilight 4:33 AM EDT 8:45 PM EDT
Nautical Twilight 3:50 AM EDT 9:28 PM EDT
Astronomical Twilight 3:00 AM EDT 10:19 PM EDT
Moon 6:01 AM EDT (6/9) 8:56 PM EDT (6/9)
Length of Visible Light 16h 12m
Length of Day
15h 05m
New Moon, 1% of the Moon is Illuminated
Jun 9
New Moon
Jun 16
First Quarter
Jun 23
Full
Jun 30
Last Quarter
Jul 8
New

Hourly Weather History & Observations

Time (EDT) Temp. Dew Point Humidity Pressure Visibility Wind Dir Wind Speed Gust Speed Precip Events Conditions
12:08 AM 60.8 °F 59.0 °F 94% 30.02 in 0.5 mi West 11.5 mph - N/A Fog Fog
12:53 AM 60.1 °F 59.0 °F 96% 30.03 in 1.0 mi West 9.2 mph - N/A   Mist
1:53 AM 60.1 °F 59.0 °F 96% 30.04 in 1.0 mi WSW 6.9 mph - N/A   Mist
2:26 AM 59.0 °F 57.2 °F 94% 30.04 in 3.0 mi West 6.9 mph - N/A   Overcast
2:45 AM 59.0 °F 57.2 °F 94% 30.04 in 4.0 mi West 6.9 mph - N/A   Scattered Clouds
2:53 AM 59.0 °F 57.9 °F 96% 30.04 in 4.0 mi West 6.9 mph - N/A   Partly Cloudy
3:53 AM 57.0 °F 55.9 °F 96% 30.05 in 2.0 mi Calm Calm - N/A   Partly Cloudy
3:57 AM 57.2 °F 55.4 °F 94% 30.05 in 1.0 mi Calm Calm - N/A   Mist
4:02 AM 57.2 °F 55.4 °F 94% 30.05 in 0.5 mi Calm Calm - N/A Fog Fog
4:11 AM 55.4 °F 55.4 °F 100% 30.05 in 0.2 mi Calm Calm - N/A Fog Fog
4:32 AM 55.4 °F 55.4 °F 100% 30.06 in 0.5 mi Calm Calm - N/A Fog Fog
4:53 AM 55.9 °F 55.0 °F 97% 30.06 in 0.8 mi West 5.8 mph - N/A   Mist
4:59 AM 55.4 °F 55.4 °F 100% 30.07 in 2.0 mi West 5.8 mph - N/A   Mostly Cloudy
5:06 AM 55.4 °F 55.4 °F 100% 30.07 in 2.0 mi West 5.8 mph - N/A   Scattered Clouds
5:17 AM 53.6 °F 53.6 °F 100% 30.07 in 0.8 mi WSW 4.6 mph - N/A   Clear
5:21 AM 53.6 °F 53.6 °F 100% 30.07 in 0.2 mi WSW 4.6 mph - N/A Fog Fog
5:31 AM 53.6 °F 53.6 °F 100% 30.08 in 0.2 mi WSW 3.5 mph - N/A Fog Fog
5:44 AM 55.4 °F 55.4 °F 100% 30.08 in 1.0 mi WSW 3.5 mph - N/A   Mist
5:51 AM 55.4 °F 55.4 °F 100% 30.08 in 0.8 mi West 3.5 mph - N/A   Mist
5:53 AM 55.9 °F 55.0 °F 97% 30.09 in 0.8 mi West 3.5 mph - N/A   Mist
6:37 AM 60.8 °F 60.8 °F 100% 30.10 in 7.0 mi Calm Calm - N/A   Clear
6:53 AM 62.1 °F 60.1 °F 93% 30.10 in 7.0 mi Calm Calm - N/A   Clear
7:53 AM 68.0 °F 59.0 °F 73% 30.12 in 10.0 mi WNW 8.1 mph - N/A   Clear
8:53 AM 71.1 °F 55.9 °F 59% 30.13 in 10.0 mi WNW 8.1 mph - N/A   Clear
9:53 AM 68.0 °F 59.0 °F 73% 30.13 in 10.0 mi SW 10.4 mph - N/A   Clear
10:53 AM 66.9 °F 57.9 °F 73% 30.14 in 10.0 mi SW 11.5 mph - N/A   Clear
11:53 AM 68.0 °F 57.9 °F 70% 30.14 in 10.0 mi SW 12.7 mph - N/A   Clear
12:53 PM 68.0 °F 57.9 °F 70% 30.13 in 10.0 mi WSW 12.7 mph - N/A   Clear
1:53 PM 68.0 °F 57.9 °F 70% 30.13 in 10.0 mi SW 13.8 mph - N/A   Clear
2:53 PM 71.1 °F 55.9 °F 59% 30.12 in 10.0 mi West 11.5 mph - N/A   Clear
3:53 PM 70.0 °F 55.0 °F 59% 30.13 in 10.0 mi WSW 12.7 mph - N/A   Clear
4:53 PM 66.0 °F 55.9 °F 70% 30.12 in 10.0 mi WSW 12.7 mph - N/A   Clear
5:53 PM 64.9 °F 55.9 °F 73% 30.13 in 10.0 mi WSW 13.8 mph - N/A   Clear
6:53 PM 64.9 °F 55.0 °F 70% 30.13 in 10.0 mi SW 12.7 mph - N/A   Clear
7:53 PM 62.1 °F 55.9 °F 80% 30.14 in 10.0 mi WSW 9.2 mph - N/A   Clear
8:53 PM 60.1 °F 57.0 °F 90% 30.15 in 7.0 mi WSW 5.8 mph - N/A   Clear
9:53 PM 59.0 °F 57.0 °F 93% 30.16 in 9.0 mi WSW 5.8 mph - N/A   Clear
10:53 PM 59.0 °F 57.0 °F 93% 30.17 in 7.0 mi SW 5.8 mph - N/A   Clear
11:53 PM 60.1 °F 57.0 °F 90% 30.17 in 10.0 mi West 9.2 mph - N/A   Clear